SCOUT A-1 R/B

Satellite information

Favourite Embed

Satellite Type and Status

ROCKET BODYIN ORBIT

Key statistics

Satellite SCOUT A-1 R/B at a glance.

Uptime

18982

Days in orbit

Revolutions

≈ 13.7

Per day

Orbit

LEO

Low Earth Orbit

Inclination

89.9

Latest

Satellite identification and parameters

Extended collection of information and parameters for SCOUT A-1 R/B.

Object identification

Identified? True

Debris? False

Object name: SCOUT A-1 R/B

International designator: 1973-081B

Object number (NORAD): 6910

Object ID (CCSDS): 6910

Country: UNITED STATES OF AMERICA (US)

Current information (Y/N): Y

RCS size: MEDIUM

Orbital parameters

Period: 105.131 minutes

Inclination: 89.8558 deg

SMA: 7378.708 km

Apoapsis: 1115.985 km

Periapsis: 885.16 km

RAAN: 253.545 deg

Eccentricy: 0.01564132

Argument of periapsis: 312.284 deg

Mean anomaly: 46.5148 deg

Mean motion: 13.6972164 rev/day

Mean motion (dot): 0.0000018 rev/day2

B* drag term: 0.00018027683 1/REarth

Two-line elements (TLE)

Creation date: Oct. 19, 2025, 2:20 a.m.

Reference frame: TEME

Reference center: EARTH

Epoch: Oct. 18, 2025, 10:47 p.m. UTC

TLE line 0: 0 SCOUT A-1 R/B

TLE line 1: 1 06910U 73081B 25291.94935723 .00000180 00000-0 18028-3 0 9997

TLE line 2: 2 06910 89.8558 253.5450 0156413 312.2840 46.5148 13.69721640593807

Live tracking on map

Real-time ground track for satellite SCOUT A-1 R/B.

In-orbit conjunctions

A list of the most updated potential collisions computed for object SCOUT A-1 R/B.

Target Orbit TCA Probability of collision Miss distance Type
COSMOS 1275 DEB LEO 2024-12-20 08:56:13 0.0001132902 493.0 (m) DEBRIS

Associated space launch

The Transit-O series of satellites that closely followed the design of Transit 5C-1 were also called “Oscars” (Oscar is the phonetic alphabet for “O”, i. e., operational). They were also called NNS (Navy Navigation Satellite) or shortened NavSat.

SCOUT A-1 R/B was lifted into orbit during the mission ‘Scout A-1 | Transit-O 20’, on board a Scout A-1 space rocket.

The launch took place on Oct. 30, 1973, 12:37 a.m. from Space Launch Complex 5.

For more information about the launch, click the button.

Launch to space Scout A-1 | Transit-O 20
Scout A-1 | Transit-O 20

Agency: N/A

Status: Launch Successful

Launch date: Oct. 30, 1973, 12:37 a.m. UTC

Rocket: Scout A-1

Launch pad: Space Launch Complex 5

Location: Vandenberg SFB, CA, USA

...

Latest news about this satellite

There are no fresh news available about this satellite. Check back as we update our databases every day.


Newsletter sign-up

Weekly statistics, charts and insights to help you stay on top of the space industry.